Location: Morisset
(33.1080°S, 151.4871°E)
Time: 08:04:49
(UTC+00:00)

Meteor PRIRODA - Pass Details

Date: 29 October 2020
Orbit: 491 x 509 km, 97.6° (Epoch: 27 November)

Event Time Altitude Azimuth Distance (km) Brightness Sun altitude
Rises 18:14:22 0° 20° (NNE) 2,599 7.2 -9.2°
Reaches altitude 10° 18:16:27 10° 23° (NNE) 1,725 6.4 -8.8°
Maximum altitude 18:20:07 61° 104° (ESE) 589 4.3 -8.1°
Drops below altitude 10° 18:23:52 10° 184° (S) 1,758 6.6 -7.3°
Sets 18:26:00 0° 187° (S) 2,653 7.5 -6.9°
